Location: B�hl
(48.6968°N, 8.1352°E)
Time: 02:02:50
(UTC+00:00)

Cosmos 2123 Rocket - Pass Details

Date: 08 March 2021
Orbit: 960 x 993 km, 82.9° (Epoch: 17 April)

Event Time Altitude Azimuth Distance (km) Brightness Sun altitude
Rises 19:31:06 0° 353° (N) 3,691 7.4 -21.8°
Reaches altitude 10° 19:33:41 10° 357° (N) 2,734 6.6 -22.2°
Maximum altitude 19:39:51 57° 76° (ENE) 1,130 4.0 -23.1°
Enters shadow 19:41:05 49° 118° (ESE) 1,235 4.1 -23.3°
